Location: Unspecified
(0.0000°N, 0.0000°E)
Time: 09:32:02
(UTC+00:00)

CHEOPS - Visible Passes

Search period start: 05 June 2023 00:00
Search period end: 15 June 2023 00:00
Orbit: 695 x 709 km, 98.2° (Epoch: 05 June)

Date Brightness Start Highest point End Pass type
(mag) Time Alt. Az. Time Alt. Az. Time Alt. Az.
05 Jun ? 05:26:01 10° SE 05:30:10 31° ENE 05:34:19 10° NNE visible
06 Jun ? 18:29:31 10° NNW 18:33:52 35° WNW 18:38:13 10° SW visible
07 Jun ? 05:14:05 10° SE 05:17:40 22° ENE 05:21:15 10° NNE visible
09 Jun ? 05:02:33 10° ESE 05:05:11 15° ENE 05:07:47 10° NE visible
09 Jun ? 19:01:14 10° NW 19:03:49 15° WNW 19:06:26 10° WSW visible
11 Jun ? 18:47:45 10° NNW 18:51:19 21° WNW 18:54:55 10° SW visible
12 Jun ? 05:30:48 10° SE 05:35:08 36° ENE 05:39:26 10° NNE visible
13 Jun ? 18:34:39 10° NNW 18:38:49 31° WNW 18:43:00 10° SW visible
14 Jun ? 05:18:45 10° SE 05:22:36 25° ENE 05:26:27 10° NNE visible
